Weather Roundup
Issued by NWS

Home | Current Version | Previous Version | Text Only | Print | Product List | Glossary On
Versions: 1 2 3 4 5 6 7 8 9 10 11 12 13 14 15 16 17 18 19 20 21 22 23 24 25 26 27 28 29 30 31 32 33 34 35 36 37 38 39 40 41 42 43 44 45 46 47 48 49 50
805
NZUS93 KARX 300359
HRRWXR

CURRENT HOURLY OBSERVATIONS ACROSS
MUCH OF THE UPPER MISSISSIPPI VALLEY
NATIONAL WEATHER SERVICE LA CROSSE WI
1100 PM CDT SAT APR 29 2017


...SOUTHEAST MINNESOTA...


CITY           SKY/WX    TMP DP  RH WIND       PRES   REMARKS
ROCHESTER      CLOUDY    45  31  58 NE14      30.13F
ROCHESTER/MAYO CLOUDY    47  30  52 NE8G16    30.14S
WINONA         CLOUDY    48  32  53 E7        30.16F
AUSTIN         CLOUDY    45  30  57 NE13      30.12R
ALBERT LEA     CLOUDY    45  30  57 NE8       30.12S
DODGE CENTER   CLOUDY    46  32  57 E10       30.14R
PRESTON        CLOUDY    44  29  56 NE7       30.12S
OWATONNA       CLOUDY    46  30  53 NE8       30.14S
FARIBAULT      CLOUDY    48  28  46 NE9       30.16S
$$

...ELSEWHERE IN MINNESOTA...


CITY           SKY/WX    TMP DP  RH WIND       PRES   REMARKS
MINNEAPOLIS    CLOUDY    50  24  36 NE14      30.20S
INTNL FALLS    PTCLDY    33  24  69 CALM      30.27R
DULUTH         CLOUDY    37  16  42 E9        30.29F WCI  30
RED WING       CLOUDY    52  25  35 E6        30.16F
REDWOOD FALLS  CLOUDY    49  24  37 NE9       30.17S
MANKATO        CLOUDY    49  30  48 NE12      30.15F
WORTHINGTON    CLOUDY    44  27  51 N10       30.16R
FAIRMONT       CLOUDY    47  31  53 NE9       30.14S
$$

...SOUTHWEST WISCONSIN...


CITY           SKY/WX    TMP DP  RH WIND       PRES   REMARKS
LA CROSSE      CLOUDY    48  28  46 NE10      30.14F
PRAIRIE DU CHI CLOUDY    43  29  58 NE10      30.11R
BOSCOBEL       CLOUDY    45  29  53 NE10G20   30.11R
LONE ROCK      NOT AVBL
PLATTEVILLE    CLOUDY    40  37  90 NE13G21   30.06R WCI  32
FORT MC COY    CLOUDY    45  29  53 NE13G18   30.15S
MAUSTON-NEW LI PTCLDY    44  29  55 E9G18     30.14S
VIROQUA        MOCLDY    42  28  55 E16       30.10S
WIS DELLS      CLOUDY    42  27  54 NE18G25   30.11R
$$

...ELSEWHERE IN WISCONSIN...


CITY           SKY/WX    TMP DP  RH WIND       PRES   REMARKS
MILWAUKEE      CLOUDY    42  40  92 NE18G25   30.07F
MADISON        DRIZZLE   38  35  89 NE17G23   30.08F WCI  28
GREEN BAY      CLOUDY    44  36  73 NE23G32   30.17F
EAU CLAIRE     CLOUDY    48  26  42 NE10      30.17F
BLACK RVR FLS  CLOUDY    46  28  49 E8        30.16S
MEDFORD        CLOUDY    43  30  59 E7        30.20F
WAUSAU         CLOUDY    44  22  41 NE10G20   30.17F
WIS RAPIDS     CLOUDY    45  25  45 E15       30.16F
MARSHFIELD     CLOUDY    43  27  53 E9        30.16F
RICE LAKE      CLOUDY    43  26  51 NE14      30.25S
$$

...NORTHEAST IOWA...


CITY           SKY/WX    TMP DP  RH WIND       PRES   REMARKS
WATERLOO       CLOUDY    42  33  70 NE14      30.07R
DUBUQUE        LGT RAIN  39  36  89 NE17      30.05R FOG     WCI  30
DECORAH        CLOUDY    43  27  52 NE14G22   30.08S
MASON CITY     LGT RAIN  44  31  60 E15       30.12R
CHARLES CITY   CLOUDY    45  27  49 NE16G26   30.09R
OELWEIN        CLOUDY    41  36  81 NE16G24   30.05F
$$

...ELSEWHERE IN IOWA...


CITY           SKY/WX    TMP DP  RH WIND       PRES   REMARKS
DES MOINES     LGT RAIN  41  39  93 NE14      30.02R FOG
IOWA CITY      LGT RAIN  42  39  89 NE14      30.02F FOG
FORT DODGE     CLOUDY    43  32  65 NE8       30.10R
MARSHALLTOWN   LGT RAIN  40  37  89 NE18G25   30.04R FOG     WCI  31
CEDAR RAPIDS   LGT RAIN  40  39  97 NE15      30.01S FOG     WCI  32
$$

...NORTHERN ILLINOIS...


CITY           SKY/WX    TMP DP  RH WIND       PRES   REMARKS
CHICAGO-OHARE  LGT RAIN  45  42  89 NE24G35   30.00R FOG
CHICAGO-MIDWAY LGT RAIN  45  43  93 NE26G35   29.99F FOG
MOLINE         CLOUDY    42  39  89 NE16      29.99R FOG
ROCKFORD       LGT RAIN  43  40  89 NE12      30.08R FOG
PEORIA         CLOUDY    45  44  97 NE10      29.91F
$$

NOTE: "FAIR" INDICATES FEW OR NO CLOUDS BELOW 12,000 FEET WITH NO
SIGNIFICANT WEATHER AND/OR OBSTRUCTIONS TO VISIBILITY. WIND
SPEEDS ARE IN MILES-PER-HOUR.




USA.gov is the U.S. government's official web portal to all federal, state and local government web resources and services.